Regional Weather Roundup
Issued by NWS

Home | Current Version | Previous Version | Graphics & Text | Print | Product List | Glossary On
Versions: 1 2 3 4 5 6 7 8 9 10 11 12 13 14 15 16 17 18 19 20 21 22 23 24 25 26 27 28 29 30 31 32 33 34 35 36 37 38 39 40 41 42 43 44 45 46 47 48 49 50
731
ASUS43 KLSX 270057
RWRMO

WEATHER SUMMARY FOR MISSOURI
NATIONAL WEATHER SERVICE SPRINGFIELD MO
700 PM CST SUN FEB 26 2017

NOTE: "FAIR" INDICATES FEW OR NO CLOUDS BELOW 12,000 FEET WITH NO
       SIGNIFICANT WEATHER AND/OR OBSTRUCTIONS TO VISIBILITY.
       CURRENT SKY AND/OR WEATHER CONDITIONS ARE NOT AVAILABLE FOR
       CHILLICOTHE AND FARMINGTON.

MOZ001>031-035>038-043-044-053-054-270200-
...NORTHERN AND WESTERN MISSOURI...

CITY           SKY/WX    TMP DP  RH WIND       PRES   REMARKS
KANSAS CTY INT CLEAR     38  26  62 SE8       29.98R
LEE`S SUMMIT   CLEAR     42  35  76 VRB6      30.00R
ST JOSEPH      CLEAR     42  26  53 S3        29.97R
CHILLICOTHE      N/A     43  23  45 S6        30.01R

$$
MOZ066>068-077>081-088>096-101>105-270200-
...SOUTHWEST MISSOURI...

CITY           SKY/WX    TMP DP  RH WIND       PRES   REMARKS
SPRINGFIELD    CLOUDY    43  31  62 SE12      29.99R
JOPLIN         MOCLDY    40  34  79 E5        29.98R
BRANSON        CLOUDY    45  25  45 E8        30.02R

$$
MOZ032>034-039>042-045>050-055>058-069>072-270200-
...CENTRAL MISSOURI...

CITY           SKY/WX    TMP DP  RH WIND       PRES   REMARKS
COLUMBIA       NOT AVBL
JEFFERSON CITY CLOUDY    41  36  82 SE7       30.07R
ROLLA          CLOUDY    37  35  92 SE6       30.05R
SEDALIA        CLOUDY    41  36  82 S13       30.05R
WARRENSBURG    CLOUDY    41  34  75 S9        30.02R
OSAGE BEACH    LGT RAIN  37  37 100 E3        30.06R

$$
MOZ051-052-059>065-270200-
...EAST CENTRAL MISSOURI...

CITY           SKY/WX    TMP DP  RH WIND       PRES   REMARKS
ST LOUIS INTL  CLOUDY    43  32  65 S9        30.09R

$$
MOZ072>076-082>087-097>100-106>115-270200-
...SOUTH CENTRAL AND SOUTHEAST MISSOURI...

CITY           SKY/WX    TMP DP  RH WIND       PRES   REMARKS
CAPE GIRARDEAU CLOUDY    47  25  42 SE5       30.11R
POPLAR BLUFF   CLOUDY    49  27  42 E3        30.07R
WEST PLAINS    CLOUDY    46  24  42 E5        30.06R

$$



USA.gov is the U.S. government's official web portal to all federal, state and local government web resources and services.